FTV 1353

operational
NORAD ID: 2481 Int'l Des: 1966-089 Owner: AFSSD Country: US
MEOCIRCULARPOLAR

FTV 1353について

説明を読み込み中...

リアルタイム位置

3D地球を読み込み中...

次回通過

高度履歴

Altitude vs Time

uPlot chart will show altitude changes over time

軌道要素

1 2481U 66089A 26063.35535619 -.00000009 00000-0 -54208-2 0 9990
2 2481 89.8424 31.9484 0033173 65.2995 295.1304 8.59255654863666
Epoch: Mar 4, 2026 • Age: 21 hours

現在のステータス

高度 3689.1 km
速度 6.30 km/s
衛星直下点 35.55°N, 96.91°E
タイプ other

大規模コンステレーション

Loading constellations...